MDT,Max TemperatureF,Mean TemperatureF,Min TemperatureF,Max Dew PointF,MeanDew PointF,Min DewpointF,Max Humidity, Mean Humidity, Min Humidity, Max Sea Level PressureIn, Mean Sea Level PressureIn, Min Sea Level PressureIn, Max VisibilityMiles, Mean VisibilityMiles, Min VisibilityMiles, Max Wind SpeedMPH, Mean Wind SpeedMPH, Max Gust SpeedMPH,PrecipitationIn, CloudCover, Events, WindDirDegrees
2013-4-1,65,45,25,23,13,5,58,34,10,29.99,29.90,29.81,10,10,10,28,8,35,0.00,2,,212
2013-4-2,59,40,21,34,16,-2,96,53,9,30.05,29.86,29.71,10,10,6,30,10,40,T,2,Snow,157
2013-4-3,59,42,25,31,24,13,92,55,17,30.16,30.06,29.93,10,9,2,28,7,33,0.01,6,Snow,223
2013-4-4,64,40,15,19,12,8,74,44,13,30.27,30.13,30.03,10,10,10,22,5,28,0.00,0,,192
2013-4-5,67,50,32,24,14,8,59,35,10,30.03,29.86,29.71,10,10,10,33,13,43,0.00,0,,222
2013-4-6,64,45,26,30,21,12,81,48,14,30.03,29.85,29.77,10,10,10,23,7,31,0.00,3,,267
2013-4-7,64,45,25,26,17,11,68,41,14,29.86,29.75,29.65,10,10,5,28,8,47,0.00,2,,269
2013-4-8,61,43,25,28,18,11,53,36,19,29.68,29.47,29.27,10,10,7,35,14,45,T,3,,190
2013-4-9,45,32,19,31,23,15,92,71,49,29.88,29.62,29.33,10,4,0,32,16,41,0.15,7,Fog-Snow,109
2013-4-10,40,32,23,28,22,11,88,68,47,29.97,29.88,29.81,10,8,1,21,8,26,0.04,7,Snow,4
2013-4-11,53,34,15,29,19,8,88,59,30,29.95,29.89,29.81,10,10,10,17,6,22,0.00,4,,303
2013-4-12,57,41,24,31,23,15,92,56,20,29.92,29.87,29.80,10,10,10,16,5,22,0.00,4,,308
2013-4-13,61,41,21,28,19,9,92,53,13,29.91,29.69,29.40,10,10,6,36,14,44,0.00,0,,239
2013-4-14,58,45,32,36,27,17,100,61,22,29.75,29.58,29.31,10,7,0,40,15,53,0.07,6,Fog-Rain-Snow,309
2013-4-15,63,50,37,26,21,18,59,38,17,29.66,29.53,29.45,10,9,2,41,18,51,0.00,3,,205
2013-4-16,69,52,35,20,8,-8,47,26,5,29.76,29.60,29.45,10,6,0,43,23,61,0.00,2,Rain,219
2013-4-17,50,36,22,28,17,8,68,48,27,29.85,29.64,29.53,10,10,2,35,16,43,0.01,5,Snow,223
2013-4-18,38,23,8,20,9,-3,92,56,19,30.27,30.02,29.86,10,8,0,25,14,35,0.05,5,Fog-Snow,4
2013-4-19,55,31,6,15,6,-1,76,44,12,30.38,30.16,29.97,10,10,10,17,6,21,0.00,2,,327
2013-4-20,54,39,24,29,20,14,85,55,24,30.02,29.92,29.83,10,10,10,28,7,33,T,4,,339
2013-4-21,61,39,17,27,17,9,100,58,15,30.15,30.05,29.94,10,9,1,23,6,33,0.00,1,,281
2013-4-22,67,44,20,30,16,8,73,43,12,29.99,29.85,29.72,10,10,7,32,12,43,0.00,0,,214
2013-4-23,50,35,19,27,10,-8,73,44,14,30.10,29.90,29.73,10,8,1,29,12,38,0.00,4,,359
2013-4-24,56,36,15,16,5,0,59,35,11,30.19,30.13,30.06,10,10,10,20,6,30,0.00,0,,36
2013-4-25,66,44,21,34,22,13,70,44,18,30.14,30.04,29.91,10,10,10,30,10,37,T,3,,209
2013-4-26,62,46,30,35,28,14,92,54,16,30.24,30.10,29.92,10,10,10,23,6,32,T,4,Rain,132
2013-4-27,66,43,20,28,17,5,92,51,10,30.33,30.18,30.06,10,10,10,17,6,25,0.00,0,,307
2013-4-28,72,46,20,17,12,7,68,38,8,30.12,29.97,29.82,10,10,10,20,4,25,0.00,0,,316
2013-4-29,77,52,26,21,17,13,57,33,9,29.89,29.76,29.65,10,10,10,30,8,39,0.00,0,,259
2013-4-30,75,53,31,20,14,9,51,30,9,29.89,29.67,29.59,10,10,9,35,13,43,0.00,0,,227